BAW14GA EGLL-LEPA

Flight info

Callsign BAW14GA
Flight time 1h 56m
Altitude 35000
Route MODMI M185 MID L151 SITET UN859 SOPIL DCT BALAN DCT EVPOK DCT NARAK DCT GAI DCT LOMRA DCT ROCAN DCT IBRAP N13 LORES
Aircraft A20N/M-SDE2E3FGHIRWXY/LB1

Departure

Time 2026-05-05 12:11
Airport London Heathrow Airport (EGLL)

Arrival

Time 2026-05-05 14:08
Airport Palma de Mallorca Airport (LEPA)
Time Latitude Longitude Altitude Speed Heading
2026-05-05 11:37 51.47271 -0.48574 84 ft 0 kts 271°
2026-05-05 12:00 51.47271 -0.48570 84 ft 1 kts 271°
2026-05-05 12:01 51.47271 -0.48543 88 ft 2 kts 268°
2026-05-05 12:01 51.47272 -0.48515 87 ft 3 kts 251°
2026-05-05 12:01 51.47281 -0.48489 89 ft 3 kts 211°
2026-05-05 12:01 51.47299 -0.48478 86 ft 3 kts 183°
2026-05-05 12:02 51.47312 -0.48478 86 ft 1 kts 178°
2026-05-05 12:02 51.47315 -0.48478 86 ft 0 kts 178°
2026-05-05 12:04 51.47304 -0.48477 86 ft 4 kts 178°
2026-05-05 12:05 51.47264 -0.48477 88 ft 7 kts 182°
2026-05-05 12:05 51.47215 -0.48480 86 ft 8 kts 181°
2026-05-05 12:05 51.47154 -0.48478 85 ft 9 kts 177°
2026-05-05 12:05 51.47084 -0.48474 84 ft 11 kts 179°
2026-05-05 12:06 51.47031 -0.48473 84 ft 7 kts 179°
2026-05-05 12:06 51.46971 -0.48472 86 ft 10 kts 179°
2026-05-05 12:06 51.46900 -0.48472 88 ft 9 kts 180°
2026-05-05 12:06 51.46850 -0.48471 84 ft 6 kts 179°
2026-05-05 12:07 51.46839 -0.48471 88 ft 0 kts 179°
2026-05-05 12:07 51.46837 -0.48471 88 ft 1 kts 179°
2026-05-05 12:07 51.46832 -0.48471 85 ft 2 kts 179°
2026-05-05 12:07 51.46807 -0.48471 88 ft 6 kts 179°
2026-05-05 12:08 51.46754 -0.48470 84 ft 9 kts 179°
2026-05-05 12:08 51.46684 -0.48469 86 ft 9 kts 179°
2026-05-05 12:08 51.46647 -0.48468 88 ft 0 kts 179°
2026-05-05 12:09 51.46642 -0.48468 88 ft 1 kts 179°
2026-05-05 12:09 51.46633 -0.48467 88 ft 1 kts 179°
2026-05-05 12:09 51.46620 -0.48467 90 ft 3 kts 179°
2026-05-05 12:09 51.46591 -0.48467 89 ft 6 kts 180°
2026-05-05 12:10 51.46532 -0.48469 88 ft 10 kts 181°
2026-05-05 12:10 51.46479 -0.48392 88 ft 13 kts 103°
2026-05-05 12:10 51.46481 -0.48012 83 ft 68 kts 89°
2026-05-05 12:10 51.46485 -0.46908 88 ft 127 kts 89°
2026-05-05 12:11 51.46485 -0.45248 195 ft 162 kts 90°
2026-05-05 12:11 51.46465 -0.43510 932 ft 155 kts 87°
2026-05-05 12:11 51.46453 -0.41766 1596 ft 159 kts 93°
2026-05-05 12:11 51.46133 -0.40022 2240 ft 169 kts 115°
2026-05-05 12:12 51.45390 -0.38498 2649 ft 183 kts 136°
2026-05-05 12:12 51.44212 -0.37389 3073 ft 213 kts 156°
2026-05-05 12:12 51.42735 -0.36626 3454 ft 241 kts 160°
2026-05-05 12:12 51.41109 -0.35756 3588 ft 244 kts 159°
2026-05-05 12:13 51.39459 -0.35274 3868 ft 241 kts 181°
2026-05-05 12:13 51.37807 -0.35728 3966 ft 245 kts 186°
2026-05-05 12:13 51.36086 -0.35838 3966 ft 251 kts 184°
2026-05-05 12:13 51.34454 -0.36776 4239 ft 255 kts 216°
2026-05-05 12:14 51.33193 -0.38747 4920 ft 256 kts 227°
2026-05-05 12:14 51.31832 -0.40558 5644 ft 257 kts 204°
2026-05-05 12:14 51.30061 -0.41282 5960 ft 273 kts 179°
2026-05-05 12:14 51.28171 -0.40901 6002 ft 275 kts 165°
2026-05-05 12:15 51.26388 -0.40142 6444 ft 261 kts 162°
2026-05-05 12:15 51.24681 -0.39373 7302 ft 249 kts 163°
2026-05-05 12:15 51.23036 -0.38678 8452 ft 243 kts 165°
2026-05-05 12:15 51.21381 -0.38033 9352 ft 247 kts 166°
2026-05-05 12:16 51.19686 -0.37413 10185 ft 252 kts 166°
2026-05-05 12:16 51.17966 -0.36807 10989 ft 255 kts 166°
2026-05-05 12:16 51.16216 -0.36202 11748 ft 260 kts 166°
2026-05-05 12:16 51.14435 -0.35586 12532 ft 264 kts 165°
2026-05-05 12:17 51.12634 -0.34960 13337 ft 267 kts 166°
2026-05-05 12:17 51.10841 -0.34336 14093 ft 270 kts 166°
2026-05-05 12:17 51.09000 -0.33696 14789 ft 273 kts 165°
2026-05-05 12:17 51.07138 -0.33051 15475 ft 275 kts 166°
2026-05-05 12:18 51.05267 -0.32400 16215 ft 277 kts 166°
2026-05-05 12:18 51.03384 -0.31743 16952 ft 278 kts 166°
2026-05-05 12:18 51.01485 -0.31083 17650 ft 281 kts 167°
2026-05-05 12:18 50.99572 -0.30417 18319 ft 283 kts 167°
2026-05-05 12:19 50.97668 -0.29757 18905 ft 285 kts 167°
2026-05-05 12:19 50.95728 -0.29086 19507 ft 286 kts 167°
2026-05-05 12:19 50.93776 -0.28411 20081 ft 289 kts 167°
2026-05-05 12:19 50.91804 -0.27730 20685 ft 290 kts 168°
2026-05-05 12:20 50.89821 -0.27046 21216 ft 295 kts 168°
2026-05-05 12:20 50.87808 -0.26352 21782 ft 296 kts 168°
2026-05-05 12:20 50.85785 -0.25655 22323 ft 300 kts 168°
2026-05-05 12:20 50.83726 -0.24947 22826 ft 304 kts 168°
2026-05-05 12:21 50.81655 -0.24233 23394 ft 306 kts 168°
2026-05-05 12:21 50.79571 -0.23516 23902 ft 306 kts 168°
2026-05-05 12:21 50.77521 -0.22812 24441 ft 305 kts 168°
2026-05-05 12:21 50.75443 -0.22102 24854 ft 309 kts 168°
2026-05-05 12:22 50.73327 -0.21379 25228 ft 313 kts 168°
2026-05-05 12:22 50.71210 -0.20653 25789 ft 310 kts 168°
2026-05-05 12:22 50.69094 -0.19930 26198 ft 314 kts 168°
2026-05-05 12:22 50.66941 -0.19195 26527 ft 318 kts 168°
2026-05-05 12:23 50.64782 -0.18458 27014 ft 318 kts 168°
2026-05-05 12:23 50.62609 -0.17718 27374 ft 321 kts 168°
2026-05-05 12:23 50.60423 -0.16974 27807 ft 322 kts 168°
2026-05-05 12:23 50.58230 -0.16229 28211 ft 323 kts 168°
2026-05-05 12:24 50.56024 -0.15479 28610 ft 325 kts 168°
2026-05-05 12:24 50.53843 -0.14739 29009 ft 326 kts 168°
2026-05-05 12:24 50.51624 -0.13987 29374 ft 327 kts 168°
2026-05-05 12:24 50.49390 -0.13230 29747 ft 329 kts 168°
2026-05-05 12:25 50.47149 -0.12471 30116 ft 330 kts 168°
2026-05-05 12:25 50.44894 -0.11708 30371 ft 333 kts 168°
2026-05-05 12:25 50.42620 -0.10940 30647 ft 336 kts 168°
2026-05-05 12:25 50.40328 -0.10167 30947 ft 337 kts 168°
2026-05-05 12:26 50.38057 -0.09402 31217 ft 340 kts 168°
2026-05-05 12:26 50.35738 -0.08620 31477 ft 342 kts 168°
2026-05-05 12:26 50.33401 -0.07833 31743 ft 345 kts 168°
2026-05-05 12:26 50.31052 -0.07043 32011 ft 347 kts 168°
2026-05-05 12:27 50.28686 -0.06248 32282 ft 349 kts 168°
2026-05-05 12:27 50.26305 -0.05449 32507 ft 352 kts 168°
2026-05-05 12:27 50.23905 -0.04645 32756 ft 354 kts 168°
2026-05-05 12:27 50.21493 -0.03837 33013 ft 355 kts 169°
2026-05-05 12:28 50.19070 -0.03026 33269 ft 357 kts 168°
2026-05-05 12:28 50.16666 -0.02224 33518 ft 359 kts 168°
2026-05-05 12:28 50.14219 -0.01407 33734 ft 361 kts 168°
2026-05-05 12:28 50.11757 -0.00585 33983 ft 362 kts 169°
2026-05-05 12:29 50.09290 0.00240 34195 ft 363 kts 168°
2026-05-05 12:29 50.06826 0.01162 34378 ft 365 kts 166°
2026-05-05 12:29 50.04356 0.02160 34516 ft 368 kts 166°
2026-05-05 12:29 50.01867 0.03173 34667 ft 371 kts 166°
2026-05-05 12:30 49.99397 0.04168 34835 ft 373 kts 166°
2026-05-05 12:30 49.96874 0.05173 34939 ft 377 kts 166°
2026-05-05 12:30 49.91692 0.07212 34940 ft 391 kts 166°
2026-05-05 12:31 49.86319 0.09318 34931 ft 405 kts 166°
2026-05-05 12:31 49.80762 0.11491 34927 ft 419 kts 166°
2026-05-05 12:32 49.75037 0.13725 34919 ft 427 kts 166°
2026-05-05 12:32 49.69345 0.15939 34916 ft 422 kts 166°
2026-05-05 12:33 49.63642 0.18201 34913 ft 423 kts 166°
2026-05-05 12:33 49.57943 0.20513 34912 ft 424 kts 166°
2026-05-05 12:34 49.52234 0.22815 34919 ft 424 kts 165°
2026-05-05 12:34 49.46567 0.25084 34910 ft 423 kts 165°
2026-05-05 12:35 49.40870 0.27362 34904 ft 423 kts 165°
2026-05-05 12:35 49.35180 0.29633 34901 ft 422 kts 165°
2026-05-05 12:36 49.29499 0.31901 34904 ft 422 kts 165°
2026-05-05 12:36 49.23879 0.34275 34898 ft 422 kts 164°
2026-05-05 12:37 49.18230 0.36676 34879 ft 421 kts 164°
2026-05-05 12:37 49.12584 0.39054 34878 ft 421 kts 164°
2026-05-05 12:38 49.07889 0.41022 34887 ft 421 kts 164°
2026-05-05 12:38 49.01303 0.43772 34892 ft 423 kts 164°
2026-05-05 12:39 48.95625 0.46141 34888 ft 423 kts 163°
2026-05-05 12:39 48.90900 0.48108 34888 ft 424 kts 164°
2026-05-05 12:40 48.85213 0.50470 34886 ft 423 kts 164°
2026-05-05 12:40 48.78611 0.53205 34877 ft 423 kts 164°
2026-05-05 12:41 48.73877 0.55086 34876 ft 423 kts 165°
2026-05-05 12:41 48.68176 0.57300 34873 ft 423 kts 165°
2026-05-05 12:42 48.62476 0.59520 34850 ft 424 kts 164°
2026-05-05 12:42 48.56765 0.61748 34852 ft 424 kts 164°
2026-05-05 12:43 48.51050 0.63977 34855 ft 425 kts 164°
2026-05-05 12:43 48.45379 0.66283 34858 ft 425 kts 163°
2026-05-05 12:44 48.39660 0.68623 34857 ft 427 kts 163°
2026-05-05 12:44 48.33917 0.70955 34854 ft 428 kts 163°
2026-05-05 12:45 48.28163 0.73282 34857 ft 429 kts 163°
2026-05-05 12:45 48.22436 0.75582 34861 ft 429 kts 164°
2026-05-05 12:46 48.16649 0.77855 34854 ft 430 kts 164°
2026-05-05 12:46 48.10855 0.80125 34849 ft 431 kts 164°
2026-05-05 12:47 48.05094 0.82383 34849 ft 431 kts 164°
2026-05-05 12:47 47.99284 0.84655 34835 ft 432 kts 164°
2026-05-05 12:48 47.93468 0.86924 34832 ft 433 kts 164°
2026-05-05 12:48 47.87627 0.89174 34834 ft 431 kts 164°
2026-05-05 12:49 47.81832 0.91444 34835 ft 431 kts 164°
2026-05-05 12:49 47.76054 0.93701 34838 ft 433 kts 164°
2026-05-05 12:50 47.70223 0.95957 34839 ft 433 kts 165°
2026-05-05 12:50 47.64396 0.98203 34840 ft 433 kts 165°
2026-05-05 12:51 47.58565 1.00446 34839 ft 433 kts 165°
2026-05-05 12:51 47.52770 1.02671 34847 ft 433 kts 165°
2026-05-05 12:52 47.46933 1.04905 34845 ft 433 kts 165°
2026-05-05 12:52 47.40983 1.06312 34853 ft 434 kts 175°
2026-05-05 12:53 47.34939 1.06292 34860 ft 435 kts 180°
2026-05-05 12:53 47.28929 1.06123 34866 ft 435 kts 180°
2026-05-05 12:54 47.19855 1.05906 34867 ft 435 kts 180°
2026-05-05 12:55 47.13806 1.05765 34865 ft 434 kts 180°
2026-05-05 12:55 47.07769 1.05625 34870 ft 434 kts 180°
2026-05-05 12:56 47.01761 1.05483 34871 ft 434 kts 180°
2026-05-05 12:56 46.95739 1.05237 34876 ft 434 kts 181°
2026-05-05 12:57 46.89686 1.04958 34877 ft 434 kts 181°
2026-05-05 12:57 46.83705 1.04696 34878 ft 433 kts 181°
2026-05-05 12:58 46.77641 1.04438 34875 ft 437 kts 181°
2026-05-05 12:58 46.71612 1.04181 34881 ft 432 kts 181°
2026-05-05 12:59 46.65560 1.03925 34881 ft 437 kts 181°
2026-05-05 12:59 46.59553 1.03670 34880 ft 431 kts 181°
2026-05-05 13:00 46.53695 1.03558 36081 ft 406 kts 178°
2026-05-05 13:00 46.50936 1.03862 36857 ft 393 kts 174°
2026-05-05 13:01 46.42806 1.06251 37200 ft 401 kts 168°
2026-05-05 13:01 46.40081 1.07183 37302 ft 404 kts 168°
2026-05-05 13:01 46.37375 1.08098 37421 ft 405 kts 168°
2026-05-05 13:01 46.34627 1.09019 37557 ft 406 kts 168°
2026-05-05 13:02 46.29081 1.10866 37755 ft 410 kts 168°
2026-05-05 13:02 46.26299 1.11791 37901 ft 411 kts 168°
2026-05-05 13:02 46.23502 1.12720 38031 ft 412 kts 168°
2026-05-05 13:03 46.20701 1.13650 38158 ft 414 kts 168°
2026-05-05 13:03 46.17891 1.14581 38266 ft 415 kts 168°
2026-05-05 13:03 46.15072 1.15514 38375 ft 416 kts 169°
2026-05-05 13:03 46.12283 1.16437 38486 ft 417 kts 169°
2026-05-05 13:04 46.09446 1.17375 38592 ft 418 kts 169°
2026-05-05 13:04 46.06607 1.18312 38687 ft 419 kts 169°
2026-05-05 13:04 46.00907 1.20191 38862 ft 421 kts 169°
2026-05-05 13:05 45.95164 1.22079 38910 ft 426 kts 169°
2026-05-05 13:05 45.89335 1.23991 38912 ft 433 kts 169°
2026-05-05 13:06 45.83457 1.25916 38911 ft 440 kts 169°
2026-05-05 13:06 45.77476 1.27872 38911 ft 440 kts 169°
2026-05-05 13:07 45.71504 1.29820 38914 ft 440 kts 169°
2026-05-05 13:07 45.65567 1.31752 38919 ft 440 kts 169°
2026-05-05 13:08 45.59592 1.33691 38924 ft 441 kts 169°
2026-05-05 13:08 45.53607 1.35630 38923 ft 441 kts 169°
2026-05-05 13:09 45.47616 1.37566 38927 ft 442 kts 169°
2026-05-05 13:09 45.41620 1.39498 38929 ft 442 kts 169°
2026-05-05 13:10 45.35656 1.41418 38940 ft 442 kts 169°
2026-05-05 13:10 45.29650 1.43346 38957 ft 443 kts 169°
2026-05-05 13:11 45.23635 1.45273 38957 ft 443 kts 170°
2026-05-05 13:11 45.17622 1.47195 38960 ft 443 kts 170°
2026-05-05 13:12 45.11686 1.49091 38965 ft 439 kts 170°
2026-05-05 13:12 45.05719 1.50988 38969 ft 440 kts 170°
2026-05-05 13:13 44.99747 1.52885 38923 ft 440 kts 170°
2026-05-05 13:13 44.93818 1.54767 38934 ft 435 kts 170°
2026-05-05 13:14 44.87935 1.56626 38938 ft 437 kts 170°
2026-05-05 13:14 44.82009 1.58496 38939 ft 436 kts 170°
2026-05-05 13:15 44.76088 1.60360 38937 ft 436 kts 170°
2026-05-05 13:15 44.70162 1.62223 38936 ft 436 kts 171°
2026-05-05 13:16 44.64276 1.64068 38940 ft 436 kts 171°
2026-05-05 13:16 44.58353 1.65922 38934 ft 436 kts 171°
2026-05-05 13:17 44.52426 1.67773 38937 ft 436 kts 171°
2026-05-05 13:17 44.46497 1.69621 38941 ft 437 kts 171°
2026-05-05 13:18 44.40564 1.71466 38934 ft 437 kts 171°
2026-05-05 13:18 44.34667 1.73297 38937 ft 437 kts 171°
2026-05-05 13:19 44.28714 1.75083 38938 ft 437 kts 174°
2026-05-05 13:19 44.22711 1.76407 38942 ft 437 kts 174°
2026-05-05 13:20 44.16701 1.77731 38940 ft 438 kts 174°
2026-05-05 13:20 44.10723 1.79049 38945 ft 438 kts 174°
2026-05-05 13:21 44.04696 1.80376 38947 ft 439 kts 174°
2026-05-05 13:21 43.98663 1.81703 38949 ft 437 kts 175°
2026-05-05 13:22 43.92655 1.82718 38951 ft 434 kts 180°
2026-05-05 13:22 43.86669 1.83278 38950 ft 434 kts 180°
2026-05-05 13:23 43.80641 1.83856 38953 ft 434 kts 180°
2026-05-05 13:23 43.74647 1.84438 38951 ft 431 kts 180°
2026-05-05 13:24 43.68653 1.85016 38956 ft 432 kts 180°
2026-05-05 13:24 43.62660 1.85595 38955 ft 432 kts 180°
2026-05-05 13:25 43.56708 1.86170 38953 ft 432 kts 180°
2026-05-05 13:25 43.50714 1.86746 38954 ft 432 kts 180°
2026-05-05 13:26 43.44720 1.87321 38947 ft 432 kts 180°
2026-05-05 13:26 43.38728 1.87897 38944 ft 431 kts 181°
2026-05-05 13:27 43.32786 1.88464 38938 ft 431 kts 181°
2026-05-05 13:27 43.26806 1.89036 38933 ft 431 kts 181°
2026-05-05 13:28 43.20825 1.89608 38924 ft 431 kts 181°
2026-05-05 13:28 43.14850 1.90179 38939 ft 430 kts 181°
2026-05-05 13:29 43.08926 1.90743 38932 ft 429 kts 181°
2026-05-05 13:29 43.02992 1.91307 38935 ft 425 kts 181°
2026-05-05 13:30 42.97103 1.91867 38932 ft 421 kts 181°
2026-05-05 13:30 42.91260 1.92420 38934 ft 422 kts 181°
2026-05-05 13:31 42.85435 1.92968 38930 ft 422 kts 181°
2026-05-05 13:31 42.79565 1.93521 38926 ft 423 kts 181°
2026-05-05 13:32 42.73705 1.94074 38915 ft 422 kts 181°
2026-05-05 13:32 42.67845 1.94781 38912 ft 426 kts 177°
2026-05-05 13:33 42.62070 1.96523 38905 ft 430 kts 171°
2026-05-05 13:33 42.56299 1.98638 38906 ft 430 kts 171°
2026-05-05 13:34 42.50513 2.00725 38901 ft 430 kts 171°
2026-05-05 13:34 42.44727 2.02801 38902 ft 430 kts 172°
2026-05-05 13:35 42.38937 2.04874 38901 ft 430 kts 172°
2026-05-05 13:35 42.33210 2.06921 38892 ft 429 kts 172°
2026-05-05 13:36 42.27442 2.08972 38906 ft 429 kts 172°
2026-05-05 13:36 42.21663 2.11020 38894 ft 428 kts 172°
2026-05-05 13:37 42.15892 2.13064 38900 ft 428 kts 172°
2026-05-05 13:37 42.10167 2.15084 38895 ft 428 kts 172°
2026-05-05 13:38 42.04415 2.17112 38896 ft 427 kts 172°
2026-05-05 13:38 41.98668 2.19132 38886 ft 426 kts 172°
2026-05-05 13:39 41.92940 2.21146 38903 ft 427 kts 173°
2026-05-05 13:39 41.87147 2.23173 38906 ft 431 kts 173°
2026-05-05 13:40 41.81393 2.25191 38905 ft 430 kts 173°
2026-05-05 13:40 41.75602 2.27216 38905 ft 430 kts 173°
2026-05-05 13:41 41.69800 2.29244 38900 ft 432 kts 173°
2026-05-05 13:41 41.63985 2.31270 38911 ft 432 kts 173°
2026-05-05 13:42 41.58166 2.33294 38916 ft 432 kts 173°
2026-05-05 13:42 41.52398 2.35301 38633 ft 432 kts 174°
2026-05-05 13:43 41.49491 2.36310 38373 ft 431 kts 174°
2026-05-05 13:43 41.46600 2.37312 38100 ft 429 kts 174°
2026-05-05 13:43 41.43721 2.38309 37826 ft 427 kts 174°
2026-05-05 13:43 41.40849 2.39302 37558 ft 426 kts 174°
2026-05-05 13:44 41.37987 2.40291 37287 ft 425 kts 174°
2026-05-05 13:44 41.35133 2.41277 37019 ft 423 kts 174°
2026-05-05 13:44 41.32325 2.42245 36759 ft 422 kts 174°
2026-05-05 13:44 41.29486 2.43224 36461 ft 420 kts 175°
2026-05-05 13:45 41.26659 2.44198 36207 ft 419 kts 175°
2026-05-05 13:45 41.23840 2.45167 35952 ft 418 kts 175°
2026-05-05 13:45 41.21028 2.46134 35698 ft 417 kts 175°
2026-05-05 13:45 41.18223 2.47097 35451 ft 416 kts 175°
2026-05-05 13:46 41.15426 2.48056 35202 ft 415 kts 175°
2026-05-05 13:46 41.12637 2.49012 34957 ft 413 kts 175°
2026-05-05 13:46 41.09858 2.49964 34682 ft 412 kts 175°
2026-05-05 13:46 41.07078 2.50914 34165 ft 414 kts 175°
2026-05-05 13:47 41.04323 2.51854 33382 ft 416 kts 175°
2026-05-05 13:47 41.01512 2.52812 32548 ft 417 kts 175°
2026-05-05 13:47 40.98711 2.53771 31786 ft 416 kts 175°
2026-05-05 13:47 40.95909 2.54728 30989 ft 416 kts 175°
2026-05-05 13:48 40.93101 2.55685 30212 ft 416 kts 175°
2026-05-05 13:48 40.90318 2.56636 29702 ft 409 kts 175°
2026-05-05 13:48 40.87591 2.57570 29121 ft 402 kts 175°
2026-05-05 13:48 40.84909 2.58484 28593 ft 395 kts 175°
2026-05-05 13:49 40.82265 2.59381 28050 ft 390 kts 175°
2026-05-05 13:49 40.79687 2.60254 27500 ft 385 kts 175°
2026-05-05 13:49 40.77103 2.61127 26960 ft 381 kts 175°
2026-05-05 13:49 40.74550 2.61989 26412 ft 377 kts 175°
2026-05-05 13:50 40.72017 2.62844 25877 ft 374 kts 175°
2026-05-05 13:50 40.69504 2.63691 25337 ft 371 kts 175°
2026-05-05 13:50 40.67015 2.64530 24805 ft 368 kts 175°
2026-05-05 13:50 40.64537 2.65364 24265 ft 367 kts 174°
2026-05-05 13:51 40.62065 2.66195 23710 ft 365 kts 174°
2026-05-05 13:51 40.59607 2.67021 23078 ft 365 kts 174°
2026-05-05 13:51 40.57202 2.67832 22594 ft 359 kts 174°
2026-05-05 13:51 40.54794 2.68642 22069 ft 356 kts 174°
2026-05-05 13:52 40.52407 2.69444 21535 ft 353 kts 174°
2026-05-05 13:52 40.50003 2.70427 20991 ft 378 kts 166°
2026-05-05 13:52 40.47547 2.71951 20399 ft 401 kts 158°
2026-05-05 13:52 40.45092 2.73747 19784 ft 406 kts 158°
2026-05-05 13:53 40.42621 2.75561 19169 ft 406 kts 157°
2026-05-05 13:53 40.40165 2.77359 18561 ft 403 kts 157°
2026-05-05 13:53 40.37756 2.79115 17906 ft 400 kts 157°
2026-05-05 13:53 40.35338 2.80869 17285 ft 394 kts 157°
2026-05-05 13:54 40.32958 2.82592 16745 ft 387 kts 157°
2026-05-05 13:54 40.30652 2.84263 16562 ft 371 kts 157°
2026-05-05 13:54 40.28439 2.85867 16410 ft 356 kts 157°
2026-05-05 13:54 40.26318 2.87401 16272 ft 341 kts 158°
2026-05-05 13:55 40.24280 2.88872 16145 ft 328 kts 158°
2026-05-05 13:55 40.22314 2.90287 15903 ft 318 kts 158°
2026-05-05 13:55 40.20378 2.91674 15437 ft 317 kts 158°
2026-05-05 13:55 40.18472 2.93036 15035 ft 315 kts 158°
2026-05-05 13:56 40.16553 2.94411 14624 ft 313 kts 157°
2026-05-05 13:56 40.14651 2.95774 14217 ft 311 kts 157°
2026-05-05 13:56 40.12759 2.97131 13820 ft 309 kts 157°
2026-05-05 13:56 40.10882 2.98477 13393 ft 307 kts 156°
2026-05-05 13:57 40.09015 2.99815 12964 ft 305 kts 156°
2026-05-05 13:57 40.07161 3.01144 12534 ft 303 kts 156°
2026-05-05 13:57 40.05315 3.02465 12110 ft 301 kts 156°
2026-05-05 13:57 40.03484 3.03774 11683 ft 299 kts 156°
2026-05-05 13:58 40.01689 3.05058 11288 ft 298 kts 156°
2026-05-05 13:58 39.99875 3.06351 10846 ft 297 kts 155°
2026-05-05 13:58 39.98064 3.07643 10435 ft 296 kts 155°
2026-05-05 13:58 39.96267 3.08928 10040 ft 294 kts 155°
2026-05-05 13:59 39.92593 3.11096 9186 ft 285 kts 173°
2026-05-05 13:59 39.90640 3.11208 8774 ft 280 kts 188°
2026-05-05 14:00 39.86782 3.10702 7902 ft 278 kts 188°
2026-05-05 14:00 39.85508 3.10542 7629 ft 277 kts 188°
2026-05-05 14:00 39.82976 3.10227 7126 ft 274 kts 188°
2026-05-05 14:00 39.81101 3.09996 6961 ft 268 kts 188°
2026-05-05 14:01 39.79233 3.09765 6917 ft 270 kts 188°
2026-05-05 14:01 39.77360 3.09534 6916 ft 270 kts 187°
2026-05-05 14:01 39.75488 3.09306 6915 ft 270 kts 188°
2026-05-05 14:01 39.73620 3.09080 6920 ft 268 kts 188°
2026-05-05 14:02 39.71790 3.08686 6913 ft 265 kts 204°
2026-05-05 14:02 39.70337 3.07438 6915 ft 247 kts 229°
2026-05-05 14:02 39.69417 3.05659 6914 ft 230 kts 239°
2026-05-05 14:02 39.68588 3.03894 6552 ft 232 kts 239°
2026-05-05 14:03 39.67730 3.02083 6028 ft 240 kts 239°
2026-05-05 14:03 39.66867 3.00249 5831 ft 233 kts 239°
2026-05-05 14:03 39.66045 2.98492 5718 ft 222 kts 239°
2026-05-05 14:03 39.65265 2.96815 5604 ft 213 kts 239°
2026-05-05 14:04 39.64502 2.95186 5263 ft 216 kts 239°
2026-05-05 14:04 39.63718 2.93514 4697 ft 219 kts 239°
2026-05-05 14:04 39.62908 2.91792 3756 ft 229 kts 239°
2026-05-05 14:04 39.62075 2.90000 3009 ft 230 kts 239°
2026-05-05 14:05 39.61254 2.88280 2532 ft 219 kts 236°
2026-05-05 14:05 39.60480 2.86641 2065 ft 209 kts 237°
2026-05-05 14:05 39.59763 2.85121 1996 ft 186 kts 237°
2026-05-05 14:05 39.59096 2.83702 1583 ft 181 kts 236°
2026-05-05 14:06 39.58482 2.82396 1165 ft 164 kts 236°
2026-05-05 14:06 39.57918 2.81214 905 ft 146 kts 237°
2026-05-05 14:06 39.57425 2.80210 777 ft 126 kts 237°
2026-05-05 14:06 39.56999 2.79248 608 ft 127 kts 238°
2026-05-05 14:07 39.56551 2.78316 424 ft 118 kts 236°
2026-05-05 14:07 39.56125 2.77408 258 ft 122 kts 237°
2026-05-05 14:07 39.55692 2.76484 113 ft 117 kts 236°
2026-05-05 14:07 39.55276 2.75606 27 ft 106 kts 237°
2026-05-05 14:08 39.55028 2.75088 28 ft 42 kts 239°
2026-05-05 14:08 39.54909 2.74834 27 ft 26 kts 239°
2026-05-05 14:08 39.54855 2.74692 29 ft 16 kts 246°
2026-05-05 14:08 39.54819 2.74555 31 ft 17 kts 256°
2026-05-05 14:09 39.54801 2.74396 31 ft 19 kts 272°
2026-05-05 14:09 39.54802 2.74250 32 ft 13 kts 269°
2026-05-05 14:09 39.54802 2.74220 32 ft 1 kts 270°
2026-05-05 14:09 39.54802 2.74216 32 ft 1 kts 270°
2026-05-05 14:10 39.54802 2.74210 32 ft 0 kts 271°
2026-05-05 14:10 39.54802 2.74197 32 ft 3 kts 271°
2026-05-05 14:10 39.54802 2.74193 32 ft 0 kts 275°
2026-05-05 14:10 39.54806 2.74174 32 ft 4 kts 286°
2026-05-05 14:11 39.54830 2.74129 31 ft 8 kts 317°
2026-05-05 14:11 39.54890 2.74075 32 ft 13 kts 327°
2026-05-05 14:11 39.54943 2.74004 32 ft 8 kts 271°
2026-05-05 14:11 39.54944 2.73934 33 ft 9 kts 300°
2026-05-05 14:12 39.55006 2.73874 33 ft 12 kts 328°
2026-05-05 14:12 39.55038 2.73807 33 ft 8 kts 250°
2026-05-05 14:12 39.55010 2.73742 33 ft 6 kts 240°
2026-05-05 14:12 39.55005 2.73730 33 ft 0 kts 242°